www.pogodaiklimat.ru

Погода и климат >> Архив погоды >> Россия >> Красноярский край >> Вельмо


ПОГОДА в Вельмо

  • Прогноз погоды в Вельмо
  • Монитор погоды в Вельмо

АРХИВ ПОГОДЫ в Вельмо

Время (UTC), дата Ветер
(напр.,м/с)
 
Видим.   Явления Облачность Т
(С)
Тd
(С)
f
(%)
Тe
(С)
Тes
(С)
Комфортность P
(гПа)
Po
(гПа)
Тmin
(С)
Tmax
(С)
R
(мм)
R24
(мм)
S
(см)
06 13.08 З 4 20 км 10/1 1000 м
[Cb calv As trans]
+17.9 +11.1 64 +18 +20 1009.8 995.6
09 13.08 З 4 50 км 10/1 1000 м
[Cu med, cong As trans]
+18.3 +10.3 60 +18 +20 1010.0 995.8
12 13.08 З 2 50 км 10/10 1000 м
[Sc]
+17.1 +11.0 67 +17 +17 1011.1 996.8 +20.1
15 13.08 штиль 0 н/о 10/8 1000 м
[Sc As op]
+14.4 +12.4 88 +14 +14 1011.6 997.2
18 13.08 В 1 н/о 9/4 1000 м
[Sc As op]
+13.8 +11.0 83 +14 +14 1013.1 998.6
21 13.08 штиль 0 н/о 10/6 1000 м
[Cb cap As op]
+12.8 +11.1 89 +12 +12 1013.7 999.1
00 14.08 Ю 1 20 км 9/0
[Ci fib]
+11.1 +9.9 92 +11 +12 1015.5 1000.8 +11.0
03 14.08 Ю 1 50 км 10/3 1000 м
[Cu med, cong Cs]
+15.9 +9.8 67 +17 +21 1016.7 1002.3
06 14.08 Ю 1 50 км 10/3 1000 м
[Cu med, cong Cs]
+19.2 +10.7 58 +21 +28 комфорт 1017.0 1002.6
09 14.08 штиль 0 50 км 10/3 1000 м
[Cu med, cong Cs]
+21.2 +11.1 52 +23 +27 комфорт 1016.4 1002.2
12 14.08 штиль 0 50 км 10/0
[Cs]
+20.8 +12.3 58 +23 +23 комфорт 1016.0 1001.8 +21.7
15 14.08 С 1 н/о местами туман поземный 10/0
[Cs]
+14.0 +12.3 89 +14 +14 1017.1 1002.5
18 14.08 С 1 н/о 10/0
[Cs]
+10.7 +9.7 94 +10 +10 1017.3 1002.7
21 14.08 штиль 0 н/о 10/6 1000 м
[Sc Cs]
+9.7 +8.9 95 +9 +9 1017.6 1002.7
00 15.08 штиль 0 20 км туман поземный 9/0
[Ci sp]
+10.0 +9.2 95 +9 +10 1017.5 1002.7 +9.7
03 15.08 СЗ 1 50 км 6/1 1000 м
[Sc Ci fib]
+16.4 +11.0 70 +17 +24 1018.1 1003.6
06 15.08 Ю 2 50 км 8/1 1000 м
[Cb calv Ci fib]
+21.5 +11.7 54 +24 +31 комфорт 1017.3 1003.1
09 15.08 ЮВ 2 20 км 8/4 1000 м
[Cb calv Ci sp]
+23.9 +12.4 49 +26 +29 жарко 1016.0 1002.0
12 15.08 В 3 20 км 8/3 1000 м
[Sc Cc]
+21.4 +14.0 63 +24 +24 комфорт 1015.8 1001.7 +24.0
15 15.08 З 1 н/о 9/0
[Ci fib]
+14.2 +12.9 92 +14 +14 1016.6 1002.1
18 15.08 штиль 0 н/о 4/0
[Ci fib]
+11.9 +10.9 94 +11 +11 1017.3 1002.6
21 15.08 С 1 н/о местами туман поземный 4/0
[Ci fib]
+9.9 +9.1 95 +9 +9 1017.9 1003.1
00 16.08 штиль 0 20 км местами туман поземный 3/0
[Ci fib]
+10.4 +9.8 96 +10 +11 1018.3 1003.5 +8.8
03 16.08 ЮВ 3 20 км 1/0
[Ci fib]
+18.7 +14.4 76 +20 +25 1017.3 1002.9
06 16.08 ЮВ 3 20 км 3/3 2000 м
[Cu med, cong Ci fib]
+22.3 +15.5 65 +26 +32 жарко 1015.9 1001.8
09 16.08 ЮВ 2 20 км 6/4 1000 м
[Cu med, cong Ci fib]
+23.7 +14.2 55 +26 +29 жарко 1014.6 1000.6
12 16.08 СВ 1 20 км 6/3 1000 м
[Cb calv Ac trans Ci fib]
+21.6 +14.5 64 +25 +25 комфорт 1014.1 1000.0 +23.9
15 16.08 СВ 1 н/о 9/8 1000 м
[Cb calv Ci sp]
+18.4 +12.5 68 +20 +20 1015.9 1001.6
18 16.08 З 1 н/о 9/8 1000 м
[Cb calv Ci sp]
+15.3 +11.6 79 +16 +16 1016.6 1002.1
21 16.08 СЗ 1 н/о 9/6 1000 м
[Cb calv Ci sp]
+12.6 +10.9 89 +13 +13 1016.7 1002.1
00 17.08 штиль 0 20 км местами туман поземный 6/1 1000 м
[Sc Ci sp]
+11.8 +10.8 94 +11 +12 1017.4 1002.7 +11.0
03 17.08 В 4 20 км 8/4 1000 м
[Sc Ci sp]
+18.5 +11.2 62 +19 +21 1017.1 1002.7
06 17.08 СВ 2 20 км 8/6 1000 м
[Cb calv Ci sp]
+19.6 +10.6 56 +21 +25 комфорт 1016.8 1002.5
09 17.08 ЮВ 3 20 км 9/3 1000 м
[Cb calv Ci sp]
+22.0 +9.4 45 +24 +26 комфорт 1016.0 1001.9
12 17.08 В 1 20 км 9/0
[Ci sp]
+21.0 +9.7 48 +24 +24 комфорт 1016.2 1002.0 +23.5
15 17.08 С 2 н/о 1/0
[Ci fib]
+12.8 +10.3 85 +12 +12 1016.9 1002.3
18 17.08 С 1 н/о 6/0
[Ci fib]
+9.2 +8.2 93 +8 +8 1017.5 1002.6
21 17.08 штиль 0 н/о местами туман поземный 6/0
[Ci fib]
+7.0 +6.1 94 +6 +6 1018.2 1003.2
00 18.08 штиль 0 20 км туман поземный 9/0
[Ci sp]
+7.4 +6.7 95 +6 +7 1018.3 1003.3 +6.1
03 18.08 штиль 0 20 км 4/0
[Ci fib]
+11.8 +11.0 95 +11 +19 1018.3 1003.6
06 18.08 ЮЗ 2 20 км 6/3 1000 м
[Cb calv Ci fib]
+21.7 +11.1 51 +24 +30 комфорт 1016.0 1001.9
09 18.08 ЮЗ 2 20 км 6/4 1000 м
[Cb calv Ci fib]
+23.8 +11.4 46 +25 +28 комфорт 1014.4 1000.4
12 18.08 ЮЗ 2 20 км 10/0
[Cs]
+22.4 +13.4 57 +25 +26 комфорт 1014.0 999.9 +24.3
15 18.08 С 1 н/о местами туман поземный 10/0
[Cs]
+13.7 +12.6 93 +14 +14 1014.7 1000.2
18 18.08 штиль 0 н/о туман поземный 9/0
[Ci sp]
+9.6 +8.6 93 +9 +9 1015.0 1000.2
21 18.08 штиль 0 н/о туман поземный 9/0
[Ci sp]
+7.0 +6.3 95 +6 +6 1014.9 1000.0
00 19.08 штиль 0 500 м туман ?/? +8.4 +7.8 96 +7 +7 1014.7 999.9 +7.0
03 19.08 ЮВ 1 20 км в посл. час туман 4/0
[Ci fib]
+13.3 +11.8 91 +13 +20 1016.1 1001.5
06 19.08 З 1 20 км {туман} 3/1 1000 м
[Cb calv Ci fib]
+22.1 +11.1 50 +24 +34 комфорт 1014.7 1000.6
09 19.08 Ю 3 20 км 4/1 1000 м
[Cu med, cong Ci fib]
+24.8 +9.0 37 +25 +29 комфорт 1014.0 1000.0
12 19.08 штиль 0 20 км 9/1 1000 м
[Cu med, cong Ci fib]
+23.7 +11.3 46 +25 +26 комфорт 1013.7 999.7 +25.3
15 19.08 штиль 0 н/о 6/0
[Ci fib]
+13.1 +10.4 84 +13 +13 1015.4 1000.8
18 19.08 С 1 н/о 4/0
[Ci fib]
+9.0 +7.7 92 +8 +8 1016.2 1001.4
21 19.08 штиль 0 н/о 8/0
[Ci fib]
+6.4 +5.5 94 +5 +5 1016.7 1001.8
00 20.08 СВ 1 20 км 10/0
[Cs]
+6.7 +5.8 94 +6 +6 1017.1 1002.2 +5.3
03 20.08 В 1 20 км 10/0
[Cs]
+15.3 +9.1 66 +16 +22 1017.1 1002.5

 

Местоположение метеостанции Вельмо (Красноярский край, Россия): широта 61.02 долгота 93.42 высота над уровнем моря 122 м.

В архиве по умолчанию представлена погода в Вельмо за последнюю неделю. Архивные данные за месяц целиком и за предыдущие месяцы, начиная с января 2011 года, Вы можете получить, выбрав интересующий диапазон дат из раскрывающегося списка и нажав кнопку "Ввод!".


*Определитесь, кто Вы:
робот инопланетянин человек

Внимание! Время в таблицах - всемирное. Для получения местного времени необходимо прибавить поправку, которая равна 7 ч.

Смотрите также архив погоды в соседних городах и на ближайших метеорологических станциях:

Погода в Северо-Енисейском (Красноярский край, Россия) (74 км)
Погода в Кузьмовке (Эвенкия, Россия) (160 км)
Погода в Байките (Эвенкия, Россия) (173 км)
Погода в Ярцево (Красноярский край, Россия) (192 км)
Погода в Бору (Красноярский край, Россия) (193 км)
Погода в Ворогово (Красноярский край, Россия) (204 км)
Погода в Назимово (Красноярский край, Россия) (215 км)
Погода в Усть-Камо (Эвенкия, Россия) (224 км)
Погода в Бахте (Красноярский край, Россия) (283 км)
Погода в Сыме (Красноярский край, Россия) (285 км)

Пояснения к столбцам:

Ветер - указаны скорость ветра в м/с - средняя за 10 мин, порывы в срок и между сроками (в фигурных скобках) и направление, откуда дует ветер: С - северный, СВ - северо-восточный, В - восточный, ЮВ - юго-восточный, Ю - южный, ЮЗ - юго-западный, З - западный, СЗ - северо-западный.
Видимость - горизонтальная дальность видимости в метрах или километрах. При видимости от 1 до 10 км при отсутствии осадков обычно наблюдается дымка, при ухудшении видимости до 1 км и менее - туман. В сухую погоду видимость может ухудшаться дымом, пылью или мглою.
Явления - указаны атмосферные явления, наблюдавшиеся в срок или в последний час перед сроком; фигурными скобками обозначены явления, наблюдавшиеся между сроками (за 1-3 часа до срока); квадратными скобками обозначены град или гололедные отложения с указанием их диаметра в мм.
Облачность - указаны через наклонную черту общая и нижняя облачность в баллах и высота нижней границы облаков в метрах; квадратными скобками обозначены формы облаков: Ci - перистые, Cs - перисто-слоистые, Cc - перисто-кучевые, Ac - высококучевые, As - высокослоистые, Sc - слоисто-кучевые, Ns - слоисто-дождевые, Cu - кучевые, Cb - кучево-дождевые. Подробнее классификацию облаков см. в Атласе облаков (PDF).
T - Температура воздуха - температура, измеренная на высоте 2 м над землей.
Td - Температура точки росы - температура, при понижении до которой содержащийся в воздухе водяной пар достигнет насыщения.
f - Относительная влажность воздуха - влажноcть воздуха, измеренная на высоте 2 м над землей.
Te - Эффективная температура - температура, которую ощущает одетый по сезону человек в тени. Характеристика душности погоды. При расчете учитывается влияние влажности воздуха и скорости ветра на теплоощущения человека.
Tes - Эффективная температура на солнце - температура, которую ощущает человек, с поправкой на солнечный нагрев. Характеристика знойности погоды. Зависит от высоты солнца над горизонтом, облачности и скорости ветра. Ночью, в пасмурную погоду, а также при ветре 12 м/с и более поправка равна нулю.
P - Атмосферное давление - приведенное к уровню моря атмосферное давление.
Po - Атмосферное давление - измеренное на уровне метеостанции атмосферное давление.
Tmin - Минимальная температура - минимум температуры воздуха на высоте 2 м над землей.
Tmax - Максимальная температура - максимум температуры воздуха на высоте 2 м над землей.
R - Количество осадков - Количество выпавших осадков за период времени, мм. При наведении курсора мыши на число - период времени, за который выпало указанное количество осадков.
R24 - Количество осадков - Количество выпавших осадков за 24 часа, мм.
S - Снежный покров - Высота снежного покрова, см. При наведении курсора мыши на число - состояние снежного покрова и степень покрытия местности в баллах.